Regional Weather Roundup
Issued by NWS Grand Forks, ND

Home | Current Version | Previous Version | Text Only | Print | Product List | Glossary Off
Versions: 1 2 3 4 5 6 7 8 9 10 11 12 13 14 15 16 17 18 19 20 21 22 23 24 25 26 27 28 29 30 31 32 33 34 35 36 37 38 39 40 41 42 43 44 45 46 47 48 49 50

000
ASUS43 KFGF 261231
RWRFGF
PRAIRIE TO PINES  WEATHER ROUNDUP
NATIONAL WEATHER SERVICE EASTERN NORTH DAKOTA/GRAND FORKS ND
600 AM CST WED NOV 26 2014

 **SATELLITE DATA USED TO AUGMENT SKY COVER AT AUTOMATED STATIONS**
 *****  WEATHER ACROSS EASTERN NORTH DAKOTA  *****

CITY           SKY/WX    TMP DP  RH WIND       PRES   REMARKS
GRAND FORKS    CLOUDY    -2  -8  76 N17       30.34R WCI -23
6HR MIN TEMP:  -2; 6HR MAX TEMP:  11; 6HR PCP: TRACE;

GRAND FRKS AFB CLOUDY    -3  -7  80 N13       30.34R WCI -21
GRAND FRKS NWS   N/A     -2 N/A N/A N15         N/A  WCI -22
DEVILS LAKE    CLOUDY     0 -11  60 N10       30.29R WCI -17
6HR MIN TEMP:   0; 6HR MAX TEMP:   7;

FARGO          CLOUDY     8   3  80 N23       30.26R WCI -13
WAHPETON ARPT  CLOUDY    10   7  85 N14       30.21R WCI  -5
$$

 ***** WEATHER ACROSS CENTRAL AND WESTERN NORTH DAKOTA  *****

CITY           SKY/WX    TMP DP  RH WIND       PRES   REMARKS
BISMARCK       CLOUDY     6   2  83 NE12      30.30R WCI  -9
6HR MIN TEMP:   6; 6HR MAX TEMP:  17;

MINOT          LGT SNOW   5   1  83 N6        30.29S FOG     WCI  -6
6HR MIN TEMP:   4; 6HR MAX TEMP:   6; 6HR PCP: TRACE;

JAMESTOWN      CLOUDY     2  -3  80 N12       30.28R WCI -15
6HR MIN TEMP:   0; 6HR MAX TEMP:  13; 6HR PCP: TRACE;

MINOT AFB      FLURRIES   5   1  85 NE6       30.30S WCI  -6
GARRISON         N/A      7   3  84 NE7       30.25S WCI  -5
WILLISTON      LGT SNOW  14   9  80 N6        30.27R WCI   5
6HR MIN TEMP:  14; 6HR MAX TEMP:  17; 6HR PCP: TRACE;

DICKINSON      LGT SNOW  19  16  88 CALM      30.17R FOG
6HR MIN TEMP:  18; 6HR MAX TEMP:  20;

HETTINGER      CLOUDY    21  17  84 CALM      30.19S
6HR MIN TEMP:  20; 6HR MAX TEMP:  21;

$$

 *****  OTHER AIRPORT OBSERVATIONS IN OUR AREA  *****

CITY           SKY/WX    TMP DP  RH WIND       PRES   REMARKS
WALHALLA         N/A     -2  -8  78 N13       30.39R WCI -21
GRAFTON AIRPOR CLOUDY    -2  -8  78 N15G22    30.37R WCI -22
VALLEY CITY AR FLURRIES   1  -4  78 N16       30.27R WCI -18
CANDO          FLURRIES   0  -4  85 N9        30.33R WCI -16
CAVALIER APRT  CLOUDY    -2  -8  78 N14       30.39R WCI -21
GWINNER        CLOUDY    10   5  79 N17       30.23R WCI  -7
SHEYENNE NWR     N/A      8   3  79 N10       29.95  WCI  -6
ROLLA          CLOUDY    -2  -8  78 N10       30.30R WCI -19
 ***** THE ABOVE OBSERVATIONS ARE NON NWS ARE NOT QUALITY
       CONTROLLED AND MAY MIS-REPORT RAIN FOR SNOW...
$$

  *****  WEATHER ACROSS NORTHERN MINNESOTA  *****

CITY           SKY/WX    TMP DP  RH WIND       PRES   REMARKS
FLAG ISLAND    CLEAR     -6  -9  84 N9        30.27R WCI -22
WARROAD        CLEAR     -4  -9  77 NW8       30.28R WCI -19
ROSEAU         CLEAR     -6  -9  84 N7        30.30R WCI -20
HALLOCK        MOCLDY    -4  -9  77 N12       30.35R WCI -22
THF RVR FALLS  PTCLDY     0  -2  92 N15       30.28R WCI -20
6HR MIN TEMP:   1; 6HR MAX TEMP:  14;

BAUDETTE       CLEAR      2  -2  83 N10       30.22R WCI -14
6HR MIN TEMP:   2; 6HR MAX TEMP:  14; 6HR PCP: TRACE;

WASKISH        PTCLDY     7   3  85 N8        30.21R WCI  -6
CROOKSTON      PTCLDY     0  -6  78 N20       30.32R WCI -22
STEPHEN NDAWN    N/A     -2  -8  78 VRB16       N/A  WCI -23
GREENBUSH NDAW   N/A     -6  -9  84 N10         N/A  WCI -23
$$
  *****  WEATHER ACROSS CENTRAL AND WEST MINNESOTA  *****

CITY           SKY/WX    TMP DP  RH WIND       PRES   REMARKS
FOSSTON        LGT SNOW   3   1  92 N17       30.23R WCI -17
BEMIDJI        FLURRIES  12   8  84 N8        30.17R WCI   0
PARK RAPIDS    CLOUDY    16  12  84 N13       30.13R WCI   2
6HR MIN TEMP:  15; 6HR MAX TEMP:  18; 6HR PCP: TRACE;

ELBOW LAKE       N/A     19  15  86 N12       30.13R WCI   6
WADENA         FLURRIES  16  12  86 N5        30.12R WCI   9
DETROIT LAKES  PTCLDY    14  12  92 N8        30.17R WCI   3
MOORHEAD       CLOUDY     9   7  92 N21G26    30.25R FOG     WCI -11
FERGUS FALLS   PTCLDY    16  10  79 N12G18    30.19R WCI   3
MORRIS MN      LGT SNOW  19  18  93 N15       30.11R WCI   5
STAPLES        LGT SNOW  18  16  93 N5        30.11R WCI  11
$$
  *****  WEATHER ELSEWHERE ACROSS MINNESOTA  *****

CITY           SKY/WX    TMP DP  RH WIND       PRES   REMARKS
DULUTH         LGT SNOW  18  13  80 N7        30.09R WCI   9
6HR MIN TEMP:  18; 6HR MAX TEMP:  20; 6HR PCP: TRACE;

INTRNTL FALLS  MOCLDY     8   3  80 N12       30.19R WCI  -7
6HR MIN TEMP:   9; 6HR MAX TEMP:  15; 6HR PCP:  0.03;

ELY            LGT SNOW  12  10  92 CALM      30.10R
CLOQUET        FLURRIES  18  12  79 N8        30.10R WCI   7
WHEATON        FLURRIES  12  10  92 NW20G26   30.20R WCI  -6
BRAINERD       LGT SNOW  17  14  88 N8        30.11R FOG     WCI   7
6HR MIN TEMP:  17; 6HR MAX TEMP:  19; 6HR PCP: TRACE;

HIBBING        FLURRIES  18  11  74 N6        30.10R WCI  10
6HR MIN TEMP:  18; 6HR MAX TEMP:  20; 6HR PCP: TRACE;

ALEXANDRIA     LGT SNOW  19  15  84 NE14      30.09R FOG     WCI   6
6HR MIN TEMP:  19; 6HR MAX TEMP:  21; 6HR PCP: TRACE;

SAINT CLOUD    CLOUDY    23  16  74 N7        30.08R WCI  15
6HR MIN TEMP:  23; 6HR MAX TEMP:  24;

MINNEAPOLIS    FLURRIES  24  16  71 E9        30.06R WCI  14
6HR MIN TEMP:  23; 6HR MAX TEMP:  24; 6HR PCP: TRACE;

$$

  *****  WEATHER ACROSS SOUTH DAKOTA  *****

CITY           SKY/WX    TMP DP  RH WIND       PRES   REMARKS
SIOUX FALLS    FLURRIES  29  25  85 N18       29.95R WCI  16
6HR MIN TEMP:  29; 6HR MAX TEMP:  31; 6HR PCP:  0.05;

BROOKINGS      NOT AVBL
WATERTOWN      LGT SNOW  19  14  81 N23G31    30.06R WCI   2
6HR MIN TEMP:  19; 6HR MAX TEMP:  29; 6HR PCP:  0.01;

HURON          LGT SNOW  17  13  84 N26G38    30.15R FOG     WCI  -2
6HR MIN TEMP:  19; 6HR MAX TEMP:  32; 6HR PCP: TRACE;

SISSETON         N/A     13  10  88 N21       30.17R WCI  -5
ABERDEEN       PTCLDY    11   6  81 N20       30.21R WCI  -7
6HR MIN TEMP:  11; 6HR MAX TEMP:  24; 6HR PCP:  0.01;

MITCHELL       LGT SNOW  24  21  88 N24G32    30.11R FOG     WCI   8
PIERRE         CLOUDY    20  16  84 N15       30.20R WCI   6
6HR MIN TEMP:  20; 6HR MAX TEMP:  34; 6HR PCP: TRACE;

MOBRIDGE       CLOUDY    16  10  77 N13G23    30.22R WCI   2
RAPID CITY     CLOUDY    25  21  85 N13       30.17S WCI  14
6HR MIN TEMP:  25; 6HR MAX TEMP:  31;

$$

  *****  SOME WEATHER IN NEARBY STATES *****

CITY           SKY/WX    TMP DP  RH WIND       PRES   REMARKS
GLASGOW MT     CLOUDY    22  16  78 CALM      30.23R
6HR MIN TEMP:  21; 6HR MAX TEMP:  22;

GREAT FALLS MT LGT SNOW  30  29  96 SW7       30.13R FOG     WCI  23
6HR MIN TEMP:  28; 6HR MAX TEMP:  30; 6HR PCP:  0.05;

CHEYENNE WY    LGT SNOW  22  18  85 N8        30.14R FOG     WCI  12
6HR MIN TEMP:  22; 6HR MAX TEMP:  24; 6HR PCP:  0.01;

SCOTTSBLUFF NE CLOUDY    30  24  78 NW9       30.17R WCI  22
6HR MIN TEMP:  30; 6HR MAX TEMP:  32;

OMAHA NE       CLOUDY    39  34  82 NW17      29.87R
6HR MIN TEMP:  35; 6HR MAX TEMP:  40; 6HR PCP:  0.02;

DES MOINES IA  LGT SNOW  30  27  88 SE12      29.87F VSB 3/4 WCI  20
6HR MIN TEMP:  30; 6HR MAX TEMP:  33; 6HR PCP:  0.18;

DAVENPORT IA   CLOUDY    19  15  84 E10       30.07S WCI   7
6HR MIN TEMP:  15; 6HR MAX TEMP:  19;

CHICAGO IL     MOCLDY    19  16  88 CALM      30.15R
6HR MIN TEMP:  17; 6HR MAX TEMP:  21;

EAU CLAIRE WI  CLOUDY    21  15  78 E6        30.09R WCI  13
6HR MIN TEMP:  19; 6HR MAX TEMP:  22;

LA CROSSE WI   CLOUDY    20  15  81 E7        30.09R WCI  11
6HR MIN TEMP:  18; 6HR MAX TEMP:  20;

$$

  *****  SOME NATIONAL WEATHER *****

CITY           SKY/WX    TMP DP  RH WIND       PRES   REMARKS
LA GUARDIA NY  LGT RAIN  44  32  62 NE12      30.14R
6HR MIN TEMP:  44; 6HR MAX TEMP:  51; 6HR PCP: TRACE;

RALEIGH NC     RAIN      47  44  90 NE12G20   29.90S FOG
6HR MIN TEMP:  47; 6HR MAX TEMP:  50; 6HR PCP:  1.22;

ATLANTA GA     PTCLDY    44  32  62 NW12      30.02R
6HR MIN TEMP:  44; 6HR MAX TEMP:  50; 6HR PCP: TRACE;

NEW ORLEANS LA CLEAR     39  34  82 CALM      30.24R
6HR MIN TEMP:  38; 6HR MAX TEMP:  48;

OKLAHOMA CITY  PTCLDY    41  27  57 NW15      30.02R
6HR MIN TEMP:  35; 6HR MAX TEMP:  43;

ALBUQUERQUE NM PTCLDY    30   7  37 SE5       30.33S
6HR MIN TEMP:  29; 6HR MAX TEMP:  41;

SALT LAKE CITY PTCLDY    37  28  70 S5        30.34R
6HR MIN TEMP:  36; 6HR MAX TEMP:  44;

LOS ANGELES CA CLEAR     56  27  32 CALM      30.22F


USA.gov is the U.S. government's official web portal to all federal, state and local government web resources and services.